This demonstration page uses our WeatherBlox Daily Observations layout. Learn more.

Left ArrowRight Arrow

41.86663, -103.66717

Hourly Observations for June 10, 2016

Temp ( °F °C ) Dew Point ( °F °C ) Humidity (%) Winds ( mph kmh ) Pressure ( in mb ) Visibility ( mi km ) Precip ( " mm )
12:53 am 00:53 Clear 66 18.9 54 12.2 65 65 NE 6 9 29.67 1005 10 16 0.00 0.00
1:53 am 01:53 Clear 66 18.9 52 11.1 61 61 N 5 7 29.67 1005 10 16 0.00 0.00
2:53 am 02:53 Clear 64 17.8 51 10.6 63 63 Calm 29.68 1005 10 16 0.00 0.00
3:53 am 03:53 Clear 61 16.1 51 10.6 70 70 Calm 29.70 1006 10 16 0.00 0.00
4:53 am 04:53 Clear 58 14.4 50 10 75 75 NNE 6 9 29.72 1006 10 16 0.00 0.00
5:53 am 05:53 Sunny 57 13.9 50 10 78 78 N 5 7 29.74 1007 10 16 0.00 0.00
6:53 am 06:53 Sunny 63 17.2 52 11.1 68 68 NW 7 11 29.78 1009 10 16 0.00 0.00
7:53 am 07:53 Sunny 69 20.6 53 11.7 57 57 WSW 6 9 29.80 1009 10 16 0.00 0.00
8:53 am 08:53 Sunny 77 25 56 13.3 48 48 Calm 29.80 1009 10 16 0.00 0.00
9:53 am 09:53 Sunny 83 28.3 54 12.2 37 37 ENE 5 7 29.81 1010 10 16 0.00 0.00
10:53 am 10:53 Sunny 87 30.6 53 11.7 31 31 ENE 5 7 29.80 1009 10 16 0.00 0.00
11:53 am 11:53 Sunny 92 33.3 53 11.7 27 27 NNE 3 6 29.79 1009 10 16 0.00 0.00
12:53 pm 12:53 Sunny 94 34.4 53 11.7 25 25 SSE 5 7 29.78 1009 10 16 0.00 0.00
1:53 pm 13:53 Sunny 95 35 48 8.9 20 20 SE 6 9 29.77 1008 10 16 0.00 0.00
2:53 pm 14:53 Sunny 96 35.6 48 8.9 19 19 SSE 6 9 29.76 1008 10 16 0.00 0.00
3:36 pm 15:36 Mostly Sunny 96 35.6 44 6.7 17 17 VRB 7 11 29.53 1000 10 16 0.00 0.00
3:53 pm 15:53 Sunny 97 36.1 43 6.1 16 16 SSE 9 15 29.76 1008 10 16 0.00 0.00
4:53 pm 16:53 Sunny 96 35.6 45 7.2 17 17 SE 8 13 29.76 1008 10 16 0.00 0.00
5:53 pm 17:53 Sunny 92 33.3 43 6.1 18 18 SE 7 11 29.77 1008 10 16 0.00 0.00
6:53 pm 18:53 Sunny 89 31.7 48 8.9 24 24 ESE 7 11 29.75 1007 10 16 0.00 0.00
7:53 pm 19:53 Sunny 85 29.4 49 9.4 29 29 SE 7 11 29.75 1008 10 16 0.00 0.00
8:53 pm 20:53 Clear 85 29.4 47 8.3 27 27 VRB 6 9 29.78 1008 10 16 0.00 0.00
9:53 pm 21:53 Clear 81 27.2 48 8.9 32 32 S 6 9 29.77 1008 10 16 0.00 0.00
10:53 pm 22:53 Clear 82 27.8 47 8.3 29 29 SE 16 26 29.76 1008 10 16 0.00 0.00
11:53 pm 23:53 Clear 78 25.6 50 10 37 37 SSE 20 31 29.78 1008 10 16 0.00 0.00

Powered by AerisWeather